Weather History for Ft Pierce, FL

Change the Weather History Date:

Monday, April 7, 2014

  Actual Average Record
Temperature  
Mean Temperature 76 °F -  
Max Temperature 91 °F 79 °F 91 °F (2014)
Min Temperature 61 °F 58 °F 44 °F (1950)
Cooling Degree Days 11    
Growing Degree Days 26 (Base 50)    
Moisture  
Dew Point 66 °F    
Average Humidity 75    
Maximum Humidity 93    
Minimum Humidity 45    
Precipitation  
Precipitation 0.00 in - - ()
Sea Level Pressure  
Sea Level Pressure 29.92 in    
Wind  
Wind Speed 7 mph (SSE)    
Max Wind Speed 20 mph    
Max Gust Speed 24 mph    
Visibility 8 miles    
Events Fog    
Averages and records for this station are not official NWS values.
T = Trace of Precipitation, MM = Missing Value Source: NWS Daily Summary

Daily Weather History Graph

Daily Weather History Graph

Search for Another Location

Airport:

Trip Planner

Search our weather history database for the weather conditions in past years. The results will help you decide how hot, cold, wet, or windy it might be!

Date:

Astronomy

Apr. 07, 2014 Rise Set
Actual Time 7:05 AM EDT 7:42 PM EDT
Civil Twilight 6:41 AM EDT 8:05 PM EDT
Nautical Twilight 6:14 AM EDT 8:33 PM EDT
Astronomical Twilight 5:45 AM EDT 9:01 PM EDT
Moon 1:13 PM EDT (4/7) 2:04 AM EDT (4/7)
Length of Visible Light 13h 23m
Length of Day
12h 36m
First Quarter, 53% of the Moon is Illuminated
Apr 7
First Quarter
Apr 15
Full
Apr 22
Last Quarter
Apr 29
New
May 6
First Quarter

Hourly Weather History & Observations

Time (EDT) Temp. Heat Index Dew Point Humidity Pressure Visibility Wind Dir Wind Speed Gust Speed Precip Events Conditions
12:53 AM 75.0 °F - 64.9 °F 71% 29.98 in 10.0 mi SSE 12.7 mph - N/A   Clear
1:53 AM 75.0 °F - 66.0 °F 73% 29.96 in 10.0 mi SSE 12.7 mph - N/A   Clear
2:53 AM 72.0 °F - 66.0 °F 81% 29.95 in 10.0 mi South 5.8 mph - N/A   Partly Cloudy
3:53 AM 72.0 °F - 64.9 °F 78% 29.94 in 10.0 mi South 4.6 mph - N/A   Clear
4:53 AM 66.9 °F - 64.0 °F 90% 29.92 in 8.0 mi Calm Calm - N/A   Clear
5:34 AM 64.9 °F - 62.1 °F 90% 29.92 in 1.8 mi Calm Calm - N/A   Scattered Clouds
5:51 AM 64.4 °F - 60.8 °F 88% 29.93 in 2.0 mi Calm Calm - N/A   Partly Cloudy
5:53 AM 63.0 °F - 61.0 °F 93% 29.93 in 1.5 mi Calm Calm - N/A   Scattered Clouds
5:57 AM 62.1 °F - 60.1 °F 93% 29.93 in 0.8 mi Calm Calm - N/A   Mist
6:04 AM 64.0 °F - 61.0 °F 90% 29.93 in 0.2 mi Calm Calm - N/A Fog Fog
6:17 AM 64.0 °F - 61.0 °F 90% 29.94 in 0.8 mi Calm Calm - N/A   Mist
6:20 AM 64.0 °F - 61.0 °F 90% 29.94 in 1.2 mi Calm Calm - N/A   Scattered Clouds
6:31 AM 63.0 °F - 61.0 °F 93% 29.95 in 3.0 mi Calm Calm - N/A   Partly Cloudy
6:53 AM 61.0 °F - 59.0 °F 93% 29.96 in 4.0 mi Calm Calm - N/A   Clear
7:53 AM 64.0 °F - 62.1 °F 93% 29.97 in 6.0 mi Calm Calm - N/A   Clear
8:53 AM 75.0 °F - 68.0 °F 79% 29.97 in 10.0 mi SSE 5.8 mph - N/A   Clear
9:53 AM 80.1 °F 82.7 °F 68.0 °F 67% 29.96 in 10.0 mi South 17.3 mph 24.2 mph N/A   Clear
10:50 AM 82.4 °F 86.3 °F 69.8 °F 66% 29.95 in 10.0 mi South 11.5 mph 18.4 mph N/A   Clear
10:53 AM 82.9 °F 85.8 °F 68.0 °F 60% 29.95 in 10.0 mi South 10.4 mph 18.4 mph N/A   Partly Cloudy
11:53 AM - - - N/A% 29.95 in 10.0 mi South 10.4 mph - N/A   Partly Cloudy
12:50 PM 89.6 °F 92.2 °F 66.2 °F 46% 29.92 in 10.0 mi SE 9.2 mph - N/A   Partly Cloudy
12:53 PM 89.1 °F 91.3 °F 66.0 °F 46% 29.92 in 10.0 mi North - - N/A   Partly Cloudy
1:50 PM 86.0 °F 90.4 °F 69.8 °F 58% 29.91 in 10.0 mi SE 13.8 mph - N/A   Scattered Clouds
1:53 PM 89.1 °F 93.7 °F 69.1 °F 52% 29.90 in 10.0 mi SSE 8.1 mph 17.3 mph N/A   Scattered Clouds
2:53 PM 91.0 °F 94.3 °F 66.9 °F 45% 29.88 in 10.0 mi South 12.7 mph - N/A   Scattered Clouds
3:53 PM 87.8 °F 92.6 °F 69.8 °F 55% 29.85 in 10.0 mi ESE 19.6 mph 24.2 mph N/A   Scattered Clouds
4:53 PM 82.9 °F 87.5 °F 71.1 °F 67% 29.85 in 10.0 mi SE 15.0 mph - N/A   Mostly Cloudy
5:53 PM 82.9 °F 87.5 °F 71.1 °F 67% 29.85 in 10.0 mi SE 13.8 mph - N/A   Mostly Cloudy
6:53 PM 82.0 °F 86.7 °F 72.0 °F 71% 29.85 in 10.0 mi SE 11.5 mph - N/A   Partly Cloudy
7:53 PM 81.0 °F 84.9 °F 71.1 °F 72% 29.88 in 10.0 mi SSE 8.1 mph - N/A   Mostly Cloudy
8:53 PM 79.0 °F - 70.0 °F 74% 29.90 in 10.0 mi ESE 4.6 mph - 0.00 in   Mostly Cloudy
9:53 PM 79.0 °F - 70.0 °F 74% 29.90 in 10.0 mi SSE 5.8 mph - N/A   Partly Cloudy
10:53 PM 78.1 °F - 70.0 °F 76% 29.89 in 10.0 mi South 5.8 mph - N/A   Clear
11:53 PM 77.0 °F - 70.0 °F 79% 29.91 in 10.0 mi South 5.8 mph - N/A   Clear